Aérodrome :
LOGIN :

S'inscrire | Disclaimer

   EN    FR    IT 

 










Légende :    VFR   VFR Marginal   IFR   IFR Intensif   IFR Très Intensif
Visi : 
Plafond : 
>= 8 km
>= 3000ft
5 à 8 km
1000 à 3000 ft
1500m à 5 km
500 à 1000 ft
800 à 1500m
200 à 500 ft
< 800m
< 200 ft
Symboles :   Orages  Brouillard  Fortes neiges  Fortes précipitations  Vent > 20 kt
SIGMETs :   Divers  Orages  Givrage  Turbulence  Onde Orograph.  Cendres Volcan.







- Altitude de l'aérodrome : 645 ft
- Code IATA : DLE
- Voir les cartes d'approche


LFGJ - Dole Tavaux

DERNIER METAR :
  • 170930Z AUTO 24007KT 190V270 CAVOK 25/15 Q1018 TEMPO FEW060CB

METARs EXPIRÉS :
  • 170900Z AUTO 22007KT 170V250 CAVOK 24/16 Q1017 NOSIG
  • 170830Z AUTO 21007KT 160V250 CAVOK 23/16 Q1017 NOSIG
  • 170800Z AUTO 22008KT 170V260 9999 FEW013 22/17 Q1017 NOSIG
  • 170730Z AUTO 21007KT 180V250 CAVOK 21/17 Q1017 NOSIG
  • 170700Z AUTO 21006KT CAVOK 19/17 Q1017 NOSIG

TAF TAF LFGJ
Valide du 17 à 09h jusqu'au 17 à 18h UTC


170800Z 1709/1718 26005KT CAVOK
PROB30
TEMPO 1711/1717 FEW060CB
Pas de NOTAMs connus pour ce terrain.



MET'MAP, la Météo Aéronautique d'un coup d'oeil ! - Copyright ORBIFLY Décembre 2007 - Disclaimer

ORBIFLY MET'MAP TEAM :

Programmation & Développement : Alexandra Zaïnal
Conception & Développement : Baudouin d'Aumeries
Co-Programmation & Développement : Marc-Olivier Méhu
Soutien technique & logistique : Manuel Goepfert

Contact : metmap@orbifly.com




SOURCES & CREDITS :

   NOAA